Regional Weather Roundup
Issued by NWS Mt. Holly, NJ

Home | Current Version | Previous Version | Text Only | Print | Product List | Glossary On
Versions: 1 2 3 4 5 6 7 8 9 10 11 12 13 14 15 16 17 18 19 20 21 22 23 24 25 26 27 28 29 30 31 32 33 34 35 36 37 38 39 40 41 42 43 44 45 46 47 48 49 50
000
ASUS41 KPHI 062212
RWRPHI

REGIONAL WEATHER ROUNDUP
NATIONAL WEATHER SERVICE MOUNT HOLLY NJ
600 PM EDT MON JUL 06 2015

NOTE:  "FAIR" INDICATES FEW OR NO CLOUDS BELOW 12,000 FEET WITH NO
SIGNIFICANT WEATHER AND/OR OBSTRUCTIONS TO VISIBILITY.

 * = STATION DOES NOT REPORT PRECIPITATION (E.G. RAIN, SNOW, ETC.)
        OR FOG.

NJZ015>026-062300-
SOUTHERN NEW JERSEY

CITY           SKY/WX    TMP DP  RH WIND       PRES   REMARKS
POMONA         SUNNY     82  73  74 SE10      30.10R
RIO GRANDE*    PTSUNNY   77  72  83 SE10      30.10S
MILLVILLE      PTSUNNY   84  73  69 SE10      30.08R HX  90
WRIGHTSTOWN    MOSUNNY   83  73  71 SE7       30.06S
MOUNT HOLLY    MOSUNNY   83  73  72 SE8       30.07S
TRENTON        MOSUNNY   83  72  69 SE8       30.07F

$$
NJZ001>014-062300-
NORTHERN NEW JERSEY

CITY           SKY/WX    TMP DP  RH WIND       PRES   REMARKS
SUSSEX         CLOUDY    80  67  64 SE3       30.11S
ANDOVER*         N/A     79  68  69 CALM      30.12R
MORRISTOWN     CLOUDY    81  70  69 S7        30.12R
NEWARK         PTSUNNY   79  64  60 SE14      30.11S
TETERBORO      CLOUDY    81  65  58 S9        30.10S
CALDWELL       CLOUDY    79  66  64 S6        30.11S
SOMERVILLE     HVY RAIN  76  73  91 VRB5      30.08S FOG
ALLAIRE*       MOSUNNY   77  66  69 SE13      30.12F
TOMS RIVER*    MOSUNNY   79  72  78 SE9       30.12R

$$
PAZ043-044-047-054-055-060>062-066>071-062300-
EASTERN PENNSYLVANIA

CITY           SKY/WX    TMP DP  RH WIND       PRES   REMARKS
PHILADELPHIA   PTSUNNY   85  70  60 SE8       30.06F
NORTH PHILA    MOSUNNY   86  70  58 SE8       30.08F HX  90
BLUE BELL      PTSUNNY   84  72  65 E6        30.07S
DOYLESTOWN     MOSUNNY   81  69  67 SE3       30.08S
QUAKERTOWN*    PTSUNNY   82  73  74 CALM      30.09F
POTTSTOWN      PTSUNNY   82  70  66 VRB3      30.08F
LANCASTER      MOSUNNY   81  69  67 S8        30.05F
COATESVILLE    PTSUNNY   81  73  78 SE6       30.08F
READING        PTSUNNY   84  70  62 SE8       30.05S
ALLENTOWN      TSTM      75  72  88 NE6G20    30.08F VSB 1
MOUNT POCONO   PTSUNNY   76  63  64 SE10      30.16F
HAZLETON       PTSUNNY   79  68  69 E5        30.15F
WILKES BARRE   PTSUNNY   82  65  56 SE5       30.09F

$$
DEZALL-MDZ008-012-015-019-020-062300-
DELAWARE AND EASTERN MARYLAND

CITY           SKY/WX    TMP DP  RH WIND       PRES   REMARKS
WILMINGTON     MOSUNNY   81  74  79 S7        30.07S
DOVER          LGT RAIN  79  75  89 E14       30.06S
GEORGETOWN     MOSUNNY   80  74  81 SE6       30.07S
EASTON         MOSUNNY   90  70  51 S9        30.08F HX  95
ABERDEEN       MOSUNNY   88  72  58 S9        30.03F HX  94
PATUXENT       MOSUNNY   84  74  71 SE12G21   30.03F HX  91
OCEAN CITY     PTSUNNY   79  75  87 S7        30.07F
WALLOPS ISLAND PTSUNNY   81  76  84 S12       30.07F
CAMBRIDGE      SUNNY     86  70  58 S6        30.04F HX  90
SALISBURY      MOSUNNY   83  73  72 S8        30.05F

$$
PAZ001-021-NYZ056-072-MDZ011-DCZ001-062300-
OTHER NEARBY LOCATIONS

CITY           SKY/WX    TMP DP  RH WIND       PRES   REMARKS
HARRISBURG     MOSUNNY   82  71  69 SE3       30.02F
STATE COLLEGE  LGT RAIN  73  70  88 CALM      30.08F
WILLIAMSPORT   PTSUNNY   81  67  62 SE7       30.04F
BINGHAMTON     PTSUNNY   76  67  73 S8        30.11F
NEW YORK CITY  CLOUDY    79  65  62 MISG      30.15S
BALTIMORE      MOSUNNY   84  70  62 SE12      30.02F
WASHINGTON DC  PTSUNNY   84  72  65 S8        30.02F

$$



USA.gov is the U.S. government's official web portal to all federal, state and local government web resources and services.